Location: Bratislava
(48.1500°N, 17.1170°E)
Time: 19:51:46
(UTC+02:00)

Envisat - Pass Details

Date: 13 May 2026
Orbit: 761 x 763 km, 98.4° (Epoch: 10 June)

Event Time Altitude Azimuth Distance (km) Brightness Sun altitude
Rises 02:10:00 0° 29° (NNE) 3,235 7.8 -21.0°
Reaches altitude 10° 02:13:16 10° 51° (NE) 2,302 6.3 -20.8°
Maximum altitude 02:16:17 16° 88° (E) 1,923 5.3 -20.6°
Drops below altitude 10° 02:19:19 10° 125° (SE) 2,291 5.3 -20.4°
Enters shadow 02:20:24 - 135° (SE) 2,565 5.5 -20.4°
